Location: Woodstock
(43.1330°N, 80.7500°W)
Time: 12:02:15
(UTC-04:00)

Daily predictions for brighter satellites

Satellite Brightness Start Highest point End
(mag) Time Altitude Azimuth Time Altitude Azimuth Time Altitude Azimuth
Cosmos 2237 Rocket 4.3 21:17:29 10° WSW 21:22:31 33° NW 21:27:36 10° N
ERS-1 Rocket 3.0 21:19:40 10° SSE 21:24:41 80° ENE 21:29:44 10° NNW
USA 234 4.1 21:18:34 10° E 21:24:45 46° NNE 21:30:56 10° NW
Cosmos 2278 Rocket 4.5 21:25:10 10° NW 21:29:26 22° W 21:33:40 10° SSW
APEX 4.1 21:25:51 10° NNW 21:29:57 66° WSW 21:35:16 10° SSE
Milstar 3 Cent rocket 4.3 21:25:31 10° WSW 21:30:30 16° SSW 21:34:12 10° S
ALOS 3.3 21:26:27 10° S 21:30:57 48° W 21:35:29 10° NNW
Timation 1 Rocket 4.4 21:25:18 10° NNW 21:31:21 89° WSW 21:37:21 10° SSE
PSLV R/B 3.8 21:28:13 10° WSW 21:31:34 42° SSE 21:34:58 10° E
Lacrosse 4 Rocket 3.3 21:31:12 10° ESE 21:32:26 11° ESE 21:33:41 10° E
Envisat 3.3 21:29:24 10° SSE 21:34:19 52° ENE 21:39:16 10° N
SPOT 5 3.1 21:34:53 10° SE 21:39:05 46° ENE 21:43:14 10° N
CZ-2C R/B 1.8 21:37:14 10° S 21:39:24 38° W 21:41:36 10° NNW
Cosmos 2369 Rocket 3.1 21:36:36 10° N 21:41:50 36° NE 21:46:52 10° ESE
Cosmos 1666 3.3 21:42:04 10° NNW 21:45:56 59° W 21:49:45 10° S
CZ-4 SHROUD 3.4 21:43:55 10° SSE 21:47:00 54° ENE 21:50:07 10° N
MetOp-B 4.5 21:46:03 10° SE 21:51:12 51° ENE 21:56:24 10° N
Terra 3.9 21:49:26 10° E 21:51:38 13° ENE 21:53:50 10° NNE
SL-16 R/B 3.7 21:46:26 10° SW 21:51:45 41° WNW 21:57:06 10° NNE
Cosmos 1461 3.8 21:49:06 10° NW 21:53:12 44° WSW 21:57:04 10° S
USA 81 4.5 21:58:00 10° N 22:03:06 46° E 22:07:23 14° SSE
Atlas Centaur 2 3.7 21:57:06 10° SW 22:03:27 31° S 22:09:41 13° ESE
PSLV R/B 3.1 22:01:57 13° SSE 22:04:41 86° WSW 22:07:50 10° NNW
Cosmos 1992 Rocket 4.0 22:03:25 10° NNW 22:08:39 71° ENE 22:12:51 16° SSE
Cosmos 1515 3.6 22:13:54 10° S 22:17:45 80° E 22:21:38 10° N
YAOGAN 6 2.7 22:17:10 20° SSE 22:19:39 66° ENE 22:23:23 10° N
Cosmos 1939 Rocket 4.1 22:16:31 10° SSW 22:20:26 39° W 22:24:21 10° NNW
Tsikada Rocket 4.4 22:14:17 10° SSW 22:20:40 69° W 22:27:02 10° N
Cosmos 1603 4.3 22:15:19 10° SW 22:20:50 59° WNW 22:26:24 10° NNE
Cosmos 1066 Rocket 4.3 22:16:16 10° S 22:21:50 61° E 22:27:35 10° NNE
SeaSat 1 2.6 22:21:31 16° SSE 22:25:24 70° WSW 22:30:22 10° NNW
Cosmos 1953 4.1 22:23:19 10° NNE 22:26:03 17° ENE 22:27:23 15° E
Cosmos 1825 Rocket 3.5 22:22:14 13° S 22:26:09 70° E 22:30:34 10° NNE
Lacrosse 5 rocket 4.3 22:23:56 10° WNW 22:26:32 16° NNW 22:29:11 10° NNE
H-2A R/B 3.0 22:26:31 18° ESE 22:29:20 32° ENE 22:33:47 10° N
Cosmos 1190 Rocket 4.0 22:26:20 10° S 22:31:34 65° ESE 22:36:51 10° NNE
CZ-4B R/B 3.5 22:30:26 10° NNE 22:35:33 90° WNW 22:40:46 10° SSW
COSMOS 2455 3.2 22:29:39 10° SW 22:35:37 68° WNW 22:41:39 10° NNE
SPOT 1/Viking Rocket 3.5 22:34:19 19° SSE 22:38:05 86° WSW 22:43:16 10° NNW
Cosmos 1943 Rocket 2.8 22:37:44 10° NNW 22:43:01 43° ENE 22:46:09 22° ESE
Cosmos 1943 3.2 22:37:30 10° SSW 22:43:11 90° WNW 22:48:55 10° NNE
Cosmos 1346 Rocket 2.6 22:41:40 23° S 22:44:03 78° E 22:48:00 10° NNE
Cosmos 676 Rocket 4.2 22:44:54 20° S 22:48:27 55° ESE 22:53:38 10° NNE
Cosmos 1140 Rocket 4.5 22:48:29 25° ESE 22:49:41 28° E 22:54:05 10° NE
ATLAS 3B R/B 2.9 22:46:10 10° SSW 22:53:52 81° ESE 23:01:25 10° NE
Cosmos 1842 3.6 22:54:29 37° SE 22:55:26 46° E 22:59:13 10° NNE
Cosmos 1634 Rocket 4.2 22:49:34 10° NNW 22:55:41 67° W 23:00:25 18° S
SL-08 RB Rocket 3.7 22:53:21 28° S 22:55:44 85° WSW 23:00:17 10° NNW
IGS 5A 4.0 22:58:19 33° ESE 22:59:38 45° ENE 23:03:37 10° N
Meteor 1-21 4.2 22:55:45 21° S 22:59:40 75° E 23:05:29 10° NNE
ISS -2.0 22:56:53 10° W 23:00:01 42° NNW 23:03:09 10° NE
Cosmos 2084 4.1 23:01:11 10° NNW 23:05:10 45° NE 23:06:47 30° E
USA 234 3.3 23:03:51 28° SSE 23:07:33 67° SW 23:14:07 10° NW
CZ-4 R/B 4.3 23:03:04 10° N 23:08:02 65° WNW 23:12:24 13° SSW
PSLV R/B 3.3 23:05:30 10° W 23:09:02 62° S 23:09:13 61° SSE
Lacrosse 4 Rocket 1.7 23:06:33 10° SW 23:10:34 65° WNW 23:14:39 10° NNE
CZ-4C R/B 4.1 23:13:39 12° E 23:13:39 12° E 23:14:51 10° ENE
Cosmos 1758 3.6 23:08:41 10° N 23:12:45 55° E 23:13:37 45° SE
Landsat 7 3.8 23:10:50 34° S 23:12:55 79° WSW 23:17:42 10° NNW
Cosmos 1953 Rocket 4.3 23:09:37 16° SSW 23:12:55 50° WNW 23:17:15 10° N
SL-24 R/B 4.4 23:09:11 10° N 23:14:09 83° E 23:16:42 31° S
Cosmos 1766 3.6 23:13:22 10° NNW 23:17:20 61° W 23:18:39 38° SSW
ARGOS 3.8 23:14:27 22° SSW 23:17:44 49° W 23:23:00 10° NNW
Cosmos 2279 Rocket 4.1 23:11:37 10° N 23:17:53 78° W 23:21:24 28° S
Cosmos 407 Rocket 3.9 23:13:14 10° SSW 23:18:27 63° WNW 23:23:39 10° NNE
Spot 4 3.9 23:17:06 40° SE 23:18:43 68° ENE 23:23:29 10° N
SL-27 R/B 2.4 23:20:32 62° E 23:20:32 62° E 23:23:38 10° NNE
Cosmos-2242 3.0 23:19:16 10° N 23:23:41 86° W 23:24:56 47° S
Cosmos 2369 Rocket 3.3 23:20:43 10° NW 23:25:48 35° WSW 23:28:41 22° SSW
Cosmos 1932 4.3 23:23:15 18° SSW 23:27:57 75° ESE 23:34:12 10° NE
Terra 1.8 23:27:07 42° S 23:28:43 79° WSW 23:33:31 10° NNW
Cosmos 1607 4.2 23:29:24 37° SSE 23:31:14 47° ESE 23:37:09 10° NE
USA 238 DEB 3.7 23:28:44 20° SSW 23:33:46 66° ESE 23:40:46 10° NE
Lacrosse 5 4.5 23:30:25 10° NNW 23:33:51 18° N 23:37:17 10° NE
USA 238 3.7 23:28:57 21° SSW 23:33:52 65° ESE 23:40:51 10° NE
Cosmos 1954 Rocket 4.2 23:35:10 24° SSW 23:38:26 72° WNW 23:43:45 10° NNE
Cosmos 2208 Rocket 3.9 23:34:06 10° NNW 23:39:18 75° ENE 23:40:44 48° SE
Okean 3 Rocket 4.2 23:43:49 38° E 23:43:50 38° E 23:47:57 10° NNE
CZ-4B R/B 4.0 23:44:03 13° ENE 23:44:20 13° ENE 23:46:07 10° NE
Cosmos 1470 3.3 23:41:29 10° N 23:45:11 44° ENE 23:45:11 44° ENE
Cosmos 1805 3.4 23:44:43 10° NNW 23:48:38 64° W 23:49:00 60° SW
CARTOSAT-1 4.4 23:48:21 35° SW 23:49:23 42° W 23:53:31 10° NNW
Cosmos 1340 3.5 23:51:21 40° ENE 23:51:21 40° ENE 23:54:21 10° NNE
Atlas Centaur 2 3.7 23:45:33 10° WSW 23:52:19 31° S 23:52:19 31° S
